This demonstration page uses our WeatherBlox Daily Observations layout. Learn more.

Left ArrowRight Arrow

39.51506, -84.39828

Hourly Observations for July 10, 2021

Temp ( °F °C ) Dew Point ( °F °C ) Humidity (%) Winds ( mph kmh ) Pressure ( in mb ) Visibility ( mi km ) Precip ( " mm )
12:15 am 00:15 Clear 61 16 N/A N/A E 5 7 30.08 1019 10 16 N/A
12:35 am 00:35 Clear 61 16 N/A N/A WNW 3 6 30.07 1018 10 16 N/A
12:55 am 00:55 Clear 61 16 N/A N/A N N/A 30.07 1018 10 16 N/A
1:15 am 01:15 Clear 59 15 N/A N/A WNW 3 6 30.09 1019 10 16 N/A
1:35 am 01:35 Clear 59 15 N/A N/A N N/A 30.08 1019 7 11 N/A
1:55 am 01:55 Clear 59 15 N/A N/A NW 3 6 30.08 1019 10 16 N/A
2:15 am 02:15 Hazy 59 15 N/A N/A N N/A 30.08 1019 4 6 N/A
2:35 am 02:35 Clear 59 15 N/A N/A NNE 3 6 30.07 1018 10 16 N/A
2:55 am 02:55 Clear 59 15 N/A N/A NNE 3 6 30.08 1019 10 16 N/A
3:15 am 03:15 Clear 59 15 N/A N/A N 3 6 30.06 1018 10 16 N/A
3:35 am 03:35 Clear 59 15 N/A N/A N N/A 30.05 1017 10 16 N/A
3:55 am 03:55 Clear 59 15 N/A N/A N 5 7 30.05 1017 10 16 N/A
4:15 am 04:15 Clear 59 15 N/A N/A N N/A 30.05 1017 10 16 N/A
4:35 am 04:35 Hazy 59 15 N/A N/A NW 3 6 30.05 1017 5 8 N/A
4:55 am 04:55 Clear 59 15 N/A N/A N N/A 30.05 1017 10 16 N/A
5:15 am 05:15 Hazy 59 15 N/A N/A N N/A 30.05 1017 5 8 N/A
5:35 am 05:35 Hazy 59 15 N/A N/A N N/A 30.05 1017 5 8 N/A
5:55 am 05:55 Hazy 59 15 N/A N/A N N/A 30.06 1018 5 8 N/A
6:15 am 06:15 Hazy 59 15 N/A N/A NNE 3 6 30.07 1018 7 11 N/A
6:35 am 06:35 Hazy 61 16 N/A N/A N N/A 30.06 1018 7 11 N/A
6:55 am 06:55 Sunny 61 16 N/A N/A SE 5 7 30.04 1017 7 11 N/A
7:15 am 07:15 Hazy 63 17 N/A N/A E 3 6 30.03 1017 7 11 N/A
7:35 am 07:35 Sunny 63 17 N/A N/A N 3 6 30.05 1018 7 11 N/A
7:55 am 07:55 Sunny 63 17 N/A N/A NNE 3 6 30.05 1018 10 16 N/A
8:15 am 08:15 Sunny 64 18 N/A N/A ENE 5 7 30.04 1017 10 16 N/A
8:35 am 08:35 Sunny 66 19 65 18.4 96 96 SE 6 9 30.04 1017 10 16 N/A
8:55 am 08:55 Sunny 67 19.3 64 17.5 89 89 SE 5 7 30.06 1018 10 16 N/A
9:15 am 09:15 Sunny 68 19.8 64 17.7 88 88 SE 5 7 30.05 1017 10 16 N/A
9:35 am 09:35 Sunny 68 20.2 64 17.6 85 85 E 5 7 30.04 1017 10 16 N/A
9:55 am 09:55 Partly Cloudy 69 20.4 63 17.4 83 83 N N/A 30.05 1018 10 16 N/A
10:15 am 10:15 Cloudy with Light Rain 69 20.8 64 17.7 83 83 S 5 7 30.05 1018 10 16 N/A
10:35 am 10:35 Cloudy with Rain 69 20.4 64 18 86 86 SSE 5 7 30.05 1018 5 8 0.01 0.25
10:55 am 10:55 Cloudy with Rain 67 19.7 66 18.9 95 95 S 5 7 30.05 1017 4 6 0.01 0.25
11:15 am 11:15 Cloudy with Rain 66 19 66 18.9 99 99 SSE 8 13 30.06 1018 3 5 N/A
11:35 am 11:35 Cloudy with Rain 66 19 N/A N/A SE 5 7 30.04 1017 2 3 0.01 0.25
11:55 am 11:55 Mostly Cloudy with Light Rain 68 20 N/A N/A E 5 7 30.02 1017 10 16 0.03 0.76
12:15 pm 12:15 Cloudy 68 20.2 67 19.6 96 96 SE 3 6 30.02 1017 10 16 0.01 0.25
12:35 pm 12:35 Cloudy 69 20.6 67 19.7 95 95 SE 8 13 30.01 1016 10 16 0.02 0.51
12:55 pm 12:55 Cloudy 69 20.7 68 19.8 95 95 SSE 5 7 30.00 1016 10 16 0.03 0.76
1:15 pm 13:15 Cloudy 70 21 68 20.2 95 95 S 8 13 30.01 1016 10 16 0.01 0.25
1:35 pm 13:35 Cloudy 70 21 68 19.9 93 93 SE 3 6 30.01 1016 10 16 0.01 0.25
1:55 pm 13:55 Cloudy 70 21.3 68 20 92 92 N N/A 30.01 1016 10 16 0.02 0.51
2:15 pm 14:15 Cloudy 72 22.3 69 20.3 89 89 N N/A 30.00 1016 10 16 N/A
2:35 pm 14:35 Mostly Cloudy 72 22.4 69 20.3 88 88 ESE 8 13 29.99 1016 10 16 0.01 0.25
2:55 pm 14:55 Cloudy 72 22 68 20 88 88 SE 6 9 29.98 1015 10 16 0.01 0.25
3:15 pm 15:15 Mostly Cloudy 72 22.1 68 20.2 89 89 SE 6 9 29.99 1016 10 16 N/A
3:35 pm 15:35 Cloudy with Light Rain 72 22 70 21.2 95 95 ESE 8 13 29.97 1015 10 16 N/A
3:55 pm 15:55 Mostly Cloudy with Light Rain 72 22.1 70 21.2 95 95 SE 7 11 29.97 1015 10 16 0.01 0.25
4:15 pm 16:15 Mostly Cloudy 73 22.9 69 20.7 87 87 S 5 7 29.97 1015 7 11 N/A
4:35 pm 16:35 Mostly Cloudy 73 23 69 20.4 85 85 N N/A 29.96 1014 10 16 N/A
4:55 pm 16:55 Mostly Cloudy 75 23.7 70 21 85 85 E 7 11 29.95 1014 10 16 N/A
5:15 pm 17:15 Cloudy 74 23.1 69 20.5 85 85 E 3 6 29.95 1014 7 11 0.01 0.25
5:35 pm 17:35 Mostly Cloudy 76 24.2 70 21 82 82 ESE 8 13 29.92 1013 10 16 0.01 0.25
5:55 pm 17:55 Partly Cloudy 75 23.7 70 21.2 86 86 ENE 6 9 29.94 1014 10 16 0.01 0.25
6:15 pm 18:15 Cloudy 74 23.6 69 20.8 84 84 E 6 9 29.94 1014 10 16 N/A
6:35 pm 18:35 Cloudy 74 23.4 69 20.7 85 85 E 5 7 29.94 1014 10 16 N/A
6:55 pm 18:55 Cloudy 74 23.4 69 20.6 84 84 ESE 5 7 29.94 1014 10 16 0.01 0.25
7:15 pm 19:15 Cloudy 74 23.2 70 20.9 87 87 NE 5 7 29.94 1014 10 16 N/A
7:35 pm 19:35 Partly Cloudy 74 23.2 70 21.3 89 89 ENE 7 11 29.93 1013 10 16 N/A
7:55 pm 19:55 Sunny 74 23.2 70 21.2 89 89 ENE 6 9 29.93 1013 10 16 N/A
8:15 pm 20:15 Partly Cloudy 73 22.9 71 21.4 91 91 E 6 9 29.94 1014 10 16 N/A
8:35 pm 20:35 Partly Cloudy 73 22.7 70 21.2 91 91 ENE 5 7 29.94 1014 10 16 N/A
8:55 pm 20:55 Partly Cloudy 73 22.5 70 21.3 93 93 ENE 3 6 29.94 1014 10 16 N/A
9:15 pm 21:15 Mostly Cloudy 72 22.1 71 21.6 97 97 N N/A 29.94 1014 10 16 N/A
9:35 pm 21:35 Cloudy with Light Rain 72 22 71 21.6 98 98 NE 3 6 29.94 1014 10 16 N/A
9:55 pm 21:55 Cloudy 72 22 72 22 100 100 NNE 3 6 29.94 1014 10 16 N/A
10:15 pm 22:15 Mostly Cloudy 71 21.8 71 21.7 99 99 ENE 6 9 29.93 1014 10 16 N/A
10:35 pm 22:35 Mostly Cloudy 72 22 71 21.7 98 98 NE 7 11 29.93 1014 10 16 0.01 0.25
10:55 pm 22:55 Partly Cloudy 71 21.9 71 21.6 98 98 ENE 7 11 29.92 1013 10 16 0.01 0.25
11:15 pm 23:15 Cloudy 72 22 71 21.6 98 98 NE 3 6 29.92 1013 10 16 N/A
11:35 pm 23:35 Partly Cloudy with Light Rain 72 22 72 22 100 100 ENE 9 15 29.89 1012 7 11 N/A
11:55 pm 23:55 Clear 70 21 N/A N/A N N/A 29.90 1013 10 16 N/A

Powered by AerisWeather